Weather Service Report


271 
ASUS43 KMPX 240310
RWRMN 
WEATHER ROUNDUP FOR MINNESOTA
NATIONAL WEATHER SERVICE TWIN CITIES/CHANHASSEN MN
1000 PM CDT TUE SEP 23 2014


NOTE: "FAIR" INDICATES FEW OR NO CLOUDS BELOW 12,000 FEET WITH NO
SIGNIFICANT WEATHER AND/OR OBSTRUCTIONS TO VISIBILITY. N/A MEANS
CURRENT SKY AND/OR WEATHER CONDITIONS ARE NOT AVAILABLE.

MNZ060>063-068>070-240400-
   Twin Cities Metro   
  
CITY           SKY/WX    TMP DP  RH WIND       PRES   REMARKS
TWIN CITIES    CLOUDY    65  51  60 SE8       30.17R                  
ST PAUL        MOCLDY    64  52  64 S9        30.18R                  
CRYSTAL        CLOUDY    68  50  52 S12       30.15R                  
BLAINE         CLOUDY    68  52  56 S13       30.16R                  
LAKEVILLE      CLOUDY    61  52  72 S3        30.18R                  
EDEN PRAIRIE   CLOUDY    66  52  60 S12       30.16R                  
SOUTH ST PAUL  MOCLDY    65  51  60 S6        30.17R                  
LAKE ELMO      FAIR      61  52  72 SE5       30.19R                  
$$
MNZ001>005-007-008-013>017-022>024-027-028-240400-
   Northwest Minnesota   
  
CITY           SKY/WX    TMP DP  RH WIND       PRES   REMARKS
BEMIDJI        MOCLDY    59  52  78 SE8       30.09S                  
HALLOCK        MOCLDY    64  52  63 S17G25    30.00R                  
ROSEAU         PTCLDY    63  52  67 S12       30.04S                  
WARROAD        PTCLDY    61  54  77 S5        30.05S                  
THIEF RVR FALL PTCLDY    57  48  72 SE8       30.04S                  
CROOKSTON      PTCLDY    57  50  77 S7        30.03F                  
FOSSTON        PTCLDY    54  50  87 CALM      30.06F                  
DETROIT LAKES  CLOUDY    61  52  72 S17G24    30.08S                  
MOORHEAD       CLOUDY    61  57  88 S15G21    30.05S                  
PARK RAPIDS    CLOUDY    63  53  70 S10       30.09R                  
MAHNOMEN       CLOUDY    61  54  77 S10G17    30.06R                  
$$
MNZ006-009>011-018-025>026-240400-
   North Central Minnesota   
  
CITY           SKY/WX    TMP DP  RH WIND       PRES   REMARKS
BAUDETTE       PTCLDY    59  51  75 S7        30.06R                  
FLAG ISLAND    PTCLDY    61  55  82 S12       30.03R                  
INTL FALLS     PTCLDY    58  50  75 VRB5      30.10R                  
WASKISH        PTCLDY    57  54  88 CALM      30.09S                  
BIG FORK       PTCLDY    55  52  88 CALM      30.13S                  
LONGVILLE      CLOUDY    61  54  77 SE3       30.11S                  
GRAND RAPIDS   PTCLDY    55  48  76 SE5       30.14S                  
CRANE LAKE     PTCLDY    48  46  93 CALM      30.15S                  
ORR            PTCLDY    57  48  72 S5        30.12R                  
COOK           PTCLDY    57  50  77 SE3       30.15S                  
WALKER         CLOUDY    62  52  70 SE7       30.09S                  
$$
MNZ012-019>021-037-240400-
   Northeast Minnesota   
  
CITY           SKY/WX    TMP DP  RH WIND       PRES   REMARKS
DULUTH         PTCLDY    60  50  69 S7        30.18R                  
ELY            PTCLDY    55  48  76 S6        30.17R                  
HIBBING        PTCLDY    54  50  86 SE6       30.16R                  
EVELETH        PTCLDY    54  50  87 CALM      30.18R                  
DULUTH HARBOR  CLEAR     57  55  94 CALM      30.18R                  
TWO HARBORS    PTCLDY    48  45  87 CALM      30.17S                  
SILVER BAY     PTCLDY    48  48 100 CALM      30.17S                  
GRAND MARAIS     N/A     50  48  93 CALM      30.20S                  
G MARAIS ARPRT CLEAR     52  45  76 CALM      30.22S                  
$$
MNZ029>031-032-039>041-046>048-054>057-064-240400-
   West Central Minnesota   
  
CITY           SKY/WX    TMP DP  RH WIND       PRES   REMARKS
FERGUS FALLS   CLOUDY    57  54  88 SE16      30.07S                  
WHEATON        DRIZZLE   55  54  94 SE9       30.06S                  
MORRIS         CLOUDY    59  55  88 SE13      30.06S                  
ALEXANDRIA     LGT RAIN  58  55  90 SE17G24   30.11F                  
ELBOW LAKE     DRIZZLE   57  55  94 SE10      30.06S                  
WADENA         CLOUDY    59  52  77 S16       30.10F                  
GLENWOOD       LGT RAIN  57  54  88 SE9       30.11S                  
APPLETON       CLOUDY    59  55  88 SE12G20   30.06S                  
BENSON         CLOUDY    61  55  82 S13       30.08S                  
ORTONVILLE     CLOUDY    57  55  94 SE9       30.04S                  
MADISON        MOCLDY    61  55  82 SE10G17   30.05S                  
WILLMAR        LGT RAIN  61  54  77 SE10G18   30.13R                  
$$
MNZ033>034-036-042>043-049>051-058-059-240400-
   Central Minnesota     
  
CITY           SKY/WX    TMP DP  RH WIND       PRES   REMARKS
ST CLOUD       CLOUDY    66  52  60 SW13      30.15R                  
SAUK CENTRE    RAIN      57  54  89 S5        30.13R                  
PAYNESVILLE    CLOUDY    60  50  70 E9        30.14R                  
AITKIN         MOCLDY    63  54  72 SE6       30.12F                  
PINE RIVER     CLOUDY    61  54  77 SE6       30.14S                  
BRAINERD       CLOUDY    62  52  69 SE8       30.13R                  
STAPLES        CLOUDY    61  52  72 S12       30.13R                  
LONG PRAIRIE   CLOUDY    55  54  94 SE7       30.14R                  
LITTLE FALLS   CLOUDY    61  50  67 S5          N/A                   
LITCHFIELD     LGT RAIN  63  54  72 SE6       30.16R                  
BUFFALO        CLOUDY    63  52  67 S6        30.18R                  
MAPLE LAKE     CLOUDY    64  54  72 S10G16    30.17R                  
$$
MNZ037-044-045-052-053-240400-
   East Central Minnesota   
  
CITY           SKY/WX    TMP DP  RH WIND       PRES   REMARKS
PRINCETON      CLOUDY    64  54  68 SE5       30.15R                  
MORA           PTCLDY    55  50  82 CALM      30.17S                  
CAMBRIDGE      PTCLDY    64  52  63 SE5       30.14S                  
RUSH CITY      PTCLDY    57  51  80 SE3       30.17R                  
MOOSE LAKE     MOCLDY    59  52  77 CALM      30.15S                  
HINCKLEY       FAIR      59  54  82 SE3       30.16S                  
CLOQUET        PTCLDY    59  50  72 CALM      30.17S                  
MCGREGOR       PTCLDY    57  52  82 SE6       30.15S                  
$$
MNZ071>073-080-081-089-090-097-098-240400-
   Southwest Minnesota   
  
CITY           SKY/WX    TMP DP  RH WIND       PRES   REMARKS
MONTEVIDEO     CLOUDY    59  55  88 S10       30.08F                  
GRANITE FALLS  RAIN      59  55  85 SE10      30.10S                  
CANBY          CLOUDY    58  55  92 SE5       30.07S                  
MARSHALL       CLOUDY    61  52  72 S15G22    30.07S                  
REDWOOD FALLS  LGT RAIN  60  55  83 SE17G24   30.11R                  
OLIVIA         LGT RAIN  61  54  77 SE13G18   30.12R                  
PIPESTONE      CLOUDY    61  55  82 S14       30.07S                  
WINDOM         RAIN      57  55  94 SE14G20   30.12S                  
WORTHINGTON    CLOUDY    57  55  94 SE13G18   30.11S                  
JACKSON        CLOUDY    59  54  82 SE8       30.14F                  
TRACY          CLOUDY    59  56  90 S12G18    30.10R                  
SLAYTON        CLOUDY    57  56  98 SE13G18   30.10S                  
$$
MNZ065>067-074>077-082>085-091>093-240400-
   South Central Minnesota  
  
CITY           SKY/WX    TMP DP  RH WIND       PRES   REMARKS
MANKATO        CLOUDY    61  48  63 S8G17     30.17R                  
NEW ULM        HVY RAIN  57  55  94 CALM      30.15R                  
ST JAMES       CLOUDY    61  54  77 SE5       30.16R                  
FAIRMONT       CLOUDY    61  50  67 SE9       30.15S                  
GLENCOE        LGT RAIN  62  51  68 S6        30.17R                  
FARIBAULT      CLOUDY    66  48  52 S5        30.19R                  
OWATONNA       LGT RAIN  64  48  55 S7        30.19R                  
WASECA         LGT RAIN  59  50  72 SE5       30.20R                  
ALBERT LEA     CLOUDY    63  50  63 S9        30.18R                  
$$
MNZ078>079-086>088-094>096-240400-
   Southeast Minnesota   
  
CITY           SKY/WX    TMP DP  RH WIND       PRES   REMARKS
ROCHESTER      MOCLDY    58  51  78 S7        30.22R                  
RED WING       MOCLDY    64  50  59 SE7       30.18R                  
STANTON        CLOUDY    65  50  59 S7        30.17R                  
DODGE CENTER   CLOUDY    57  52  82 SE5       30.20R                  
WINONA         MOCLDY    59  54  82 CALM      30.21S                  
AUSTIN         CLOUDY    63  48  59 S6        30.19R                  
PRESTON        MOCLDY    59  53  81 SE5       30.22R                  
$$
ABBREVIATIONS USED IN REMARKS
   TC - TEMPERATURES IN CELSIUS
  WCI - WIND CHILL INDEX
   HX - HEAT INDEX
  VSB - VISIBILITY 
$$

Return to Home page


Western Regional Climate Center, wrcc@dri.edu